Location: Rowland
(34.5359°N, 79.2929°W)
Time: 17:13:21
(UTC+00:00)

S-56A Canister/Altair - Pass Details

Date: 12 October 2022
Orbit: 638 x 2494 km, 38.9° (Epoch: 06 December)

Event Time Altitude Azimuth Distance (km) Brightness Sun altitude
Rises 00:05:20 0° 191° (S) 5,765 12.1 -16.8°
Reaches altitude 10° 00:10:04 10° 179° (S) 4,952 11.6 -17.8°
Maximum altitude 00:20:34 24° 132° (SE) 4,072 10.7 -19.9°
Enters shadow 00:23:34 23° 116° (ESE) 4,162 10.7 -20.5°
